Change the Weather History Date:

Sunday, April 21, 2013

  Actual Average Record
Temperature  
Mean Temperature 49 °F -  
Max Temperature 72 °F 61 °F 82 °F (2012)
Min Temperature 26 °F 32 °F 19 °F (2008)
Degree Days  
Heating Degree Days 16    
Moisture  
Dew Point 27 °F    
Average Humidity 45    
Maximum Humidity 85    
Minimum Humidity 9    
Precipitation  
Precipitation 0.00 in - - ()
Sea Level Pressure  
Sea Level Pressure 30.01 in    
Wind  
Wind Speed 6 mph (SSW)    
Max Wind Speed 12 mph    
Max Gust Speed -    
Visibility 10 miles    
Events      
Averages and records for this station are not official NWS values.
T = Trace of Precipitation, MM = Missing Value Source: NWS Daily Summary

Daily Weather History Graph

Daily Weather History Graph

Search for Another Location

Airport or City:

Trip Planner

Search our weather history database for the weather conditions in past years. The results will help you decide how hot, cold, wet, or windy it might be!

Date:

Astronomy

Apr. 21, 2013 Rise Set
Actual Time 6:47 AM MDT 8:14 PM MDT
Civil Twilight 6:19 AM MDT 8:42 PM MDT
Nautical Twilight 5:46 AM MDT 9:15 PM MDT
Astronomical Twilight 5:11 AM MDT 9:51 PM MDT
Moon 4:06 PM MDT (4/21) 4:08 AM MDT (4/21)
Length of Visible Light 14h 22m
Length of Day
13h 27m
Waxing Gibbous, 80% of the Moon is Illuminated
Apr 21
Waxing Gibbous
Apr 25
Full
May 2
Last Quarter
May 9
New
May 17
First Quarter

Hourly Weather History & Observations

Time (MDT) Temp. Windchill Dew Point Humidity Pressure Visibility Wind Dir Wind Speed Gust Speed Precip Events Conditions
12:52 AM 39.0 °F - 28.0 °F 65% 30.09 in 10.0 mi Calm Calm - N/A   Clear
1:52 AM 37.9 °F 30.9 °F 28.0 °F 68% 30.08 in 10.0 mi West 10.4 mph - N/A   Clear
2:52 AM 36.0 °F - 28.0 °F 73% 30.08 in 10.0 mi Calm Calm - N/A   Clear
3:52 AM 33.1 °F 28.7 °F 26.1 °F 75% 30.09 in 10.0 mi WSW 4.6 mph - N/A   Clear
4:52 AM 33.1 °F 26.1 °F 27.0 °F 78% 30.09 in 10.0 mi WSW 8.1 mph - N/A   Clear
5:52 AM 28.0 °F 20.8 °F 24.1 °F 85% 30.10 in 10.0 mi SSW 6.9 mph - N/A   Clear
6:52 AM 27.0 °F 23.0 °F 23.0 °F 85% 30.12 in 10.0 mi SSW 3.5 mph - N/A   Clear
7:52 AM 30.9 °F 25.2 °F 26.1 °F 82% 30.13 in 10.0 mi South 5.8 mph - N/A   Clear
8:52 AM 41.0 °F 34.3 °F 28.0 °F 60% 30.13 in 10.0 mi SSW 11.5 mph - N/A   Clear
9:52 AM 48.9 °F - 28.9 °F 46% 30.12 in 10.0 mi SSW 8.1 mph - N/A   Clear
10:52 AM 55.0 °F - 30.9 °F 40% 30.09 in 10.0 mi SSE 5.8 mph - N/A   Clear
11:52 AM 60.1 °F - 27.0 °F 28% 30.07 in 10.0 mi SE 6.9 mph - N/A   Clear
12:52 PM 63.0 °F - 26.1 °F 25% 30.03 in 10.0 mi Variable 5.8 mph - N/A   Clear
1:52 PM 66.0 °F - 26.1 °F 22% 29.99 in 10.0 mi South 10.4 mph - N/A   Clear
2:52 PM 68.0 °F - 25.0 °F 20% 29.97 in 10.0 mi Variable 3.5 mph - N/A   Scattered Clouds
3:52 PM 70.0 °F - 25.0 °F 18% 29.93 in 10.0 mi SE 6.9 mph - N/A   Clear
4:52 PM 71.1 °F - 25.0 °F 18% 29.90 in 10.0 mi ENE 9.2 mph - N/A   Clear
5:52 PM 70.0 °F - 25.0 °F 18% 29.91 in 10.0 mi NE 8.1 mph - N/A   Clear
6:52 PM 68.0 °F - 26.1 °F 21% 29.90 in 10.0 mi NNE 8.1 mph - N/A   Clear
7:52 PM 63.0 °F - 28.0 °F 27% 29.90 in 10.0 mi North 5.8 mph - N/A   Clear
8:52 PM 55.0 °F - 30.0 °F 38% 29.90 in 10.0 mi NNW 11.5 mph - N/A   Clear
9:52 PM 46.0 °F 41.4 °F 32.0 °F 58% 29.93 in 10.0 mi SSW 9.2 mph - N/A   Clear
10:52 PM 44.1 °F 41.5 °F 30.9 °F 60% 29.92 in 10.0 mi SW 4.6 mph - N/A   Clear
11:52 PM 46.0 °F 41.9 °F 28.9 °F 51% 29.90 in 10.0 mi West 8.1 mph - N/A   Clear